Location: Poughquag
(41.6090°N, 73.6820°W)
Time: 12:37:22
(UTC-04:00)

Vanguard 1 - Pass Details

Date: 29 May 2020
Orbit: 650 x 3833 km, 34.2° (Epoch: 07 July)

Event Time Altitude Azimuth Distance (km) Brightness Sun altitude
Rises 05:05:57 0° 209° (SSW) 5,721 13.4 -3.7°
Reaches altitude 10° 05:09:36 10° 200° (SSW) 5,108 13.2 -3.2°
Maximum altitude 05:24:00 38° 139° (SE) 4,397 13.5 -0.9°
Drops below altitude 10° 05:43:42 10° 82° (E) 6,943 16.0 2.4°
Sets 05:49:41 0° 76° (ENE) 7,921 16.8 3.4°
